Portsmouth, NH

5:20 PM EST on January 19, 2017 (GMT -0500)
Pease International Tradeport

Weather History for KPSM - January, 2013

Change the Weather History Date:

Saturday, January 5, 2013

  Actual Average Record
Temperature  
Mean Temperature 27 °F -  
Max Temperature 36 °F 33 °F 60 °F (2007)
Min Temperature 17 °F 19 °F -12 °F (1981)
Degree Days  
Heating Degree Days 38    
Moisture  
Dew Point 16 °F    
Average Humidity 56    
Maximum Humidity 77    
Minimum Humidity 35    
Precipitation  
Precipitation 0.00 in - - ()
Snow  
Snow 0.00 in - - ()
Snow Depth 1.00 in    
Sea Level Pressure  
Sea Level Pressure 30.07 in    
Wind  
Wind Speed 8 mph (WNW)    
Max Wind Speed 20 mph    
Max Gust Speed 30 mph    
Visibility 10 miles    
Events      
Averages and records for this station are not official NWS values.
T = Trace of Precipitation, MM = Missing Value Source: NWS Daily Summary

Daily Weather History Graph

Daily Weather History Graph

Search for Another Location

Airport or City:

Trip Planner

Search our weather history database for the weather conditions in past years. The results will help you decide how hot, cold, wet, or windy it might be!

Date:

Astronomy

Jan. 05, 2013 Rise Set
Actual Time 7:14 AM EST 4:23 PM EST
Civil Twilight 6:42 AM EST 4:55 PM EST
Nautical Twilight 6:07 AM EST 5:30 PM EST
Astronomical Twilight 5:32 AM EST 6:05 PM EST
Moon 12:12 AM EST (1/5) 11:15 AM EST (1/5)
Length of Visible Light 10h 12m
Length of Day
9h 08m
Last Quarter, 44% of the Moon is Illuminated
Jan 5
Last Quarter
Jan 11
New
Jan 18
First Quarter
Jan 26
Full
Feb 3
Last Quarter

Hourly Weather History & Observations

Time (EST) Temp. Windchill Dew Point Humidity Pressure Visibility Wind Dir Wind Speed Gust Speed Precip Events Conditions
12:55 AM 32.7 °F 28.3 °F 19.0 °F 57% 29.79 in 10.0 mi SW 4.6 mph - N/A   Mostly Cloudy
1:55 AM 33.8 °F 27.0 °F 19.4 °F 56% 29.81 in 10.0 mi WSW 8.1 mph - N/A   Overcast
2:55 AM 33.4 °F 25.4 °F 20.8 °F 60% 29.83 in 10.0 mi West 10.4 mph - N/A   Scattered Clouds
3:55 AM 31.6 °F 25.1 °F 20.8 °F 64% 29.85 in 10.0 mi SW 6.9 mph - N/A   Scattered Clouds
4:55 AM 30.7 °F 23.3 °F 20.3 °F 65% 29.86 in 10.0 mi WSW 8.1 mph - N/A   Scattered Clouds
5:55 AM 30.7 °F 24.1 °F 20.3 °F 65% 29.91 in 10.0 mi WSW 6.9 mph - N/A   Mostly Cloudy
6:55 AM 30.4 °F 24.5 °F 19.8 °F 65% 29.94 in 10.0 mi SW 5.8 mph - N/A   Partly Cloudy
7:55 AM 29.7 °F 23.7 °F 19.6 °F 66% 29.99 in 10.0 mi WSW 5.8 mph - N/A   Scattered Clouds
8:55 AM 34.5 °F 26.2 °F 20.8 °F 57% 30.03 in 10.0 mi NW 11.5 mph - N/A   Scattered Clouds
9:55 AM 36.1 °F 26.9 °F 17.6 °F 47% 30.07 in 10.0 mi WNW 15.0 mph 24.2 mph N/A   Partly Cloudy
10:55 AM 36.3 °F 26.4 °F 13.8 °F 40% 30.10 in 10.0 mi NW 17.3 mph 26.5 mph N/A   Partly Cloudy
11:55 AM 36.9 °F 27.8 °F 14.0 °F 39% 30.11 in 10.0 mi WNW 15.0 mph - N/A   Partly Cloudy
12:55 PM 36.9 °F 26.5 °F 11.5 °F 35% 30.12 in 10.0 mi WNW 19.6 mph 29.9 mph N/A   Partly Cloudy
1:55 PM 36.5 °F 27.4 °F 13.1 °F 38% 30.13 in 10.0 mi NW 15.0 mph 24.2 mph N/A   Partly Cloudy
2:55 PM 35.2 °F 27.1 °F 11.5 °F 37% 30.15 in 10.0 mi WNW 11.5 mph - N/A   Scattered Clouds
3:55 PM 31.5 °F 23.5 °F 14.5 °F 50% 30.18 in 10.0 mi NNW 9.2 mph - N/A   Mostly Cloudy
4:55 PM 27.5 °F 20.2 °F 13.1 °F 55% 30.21 in 10.0 mi NNW 6.9 mph - N/A   Mostly Cloudy
5:55 PM 27.5 °F 23.6 °F 12.0 °F 52% 30.23 in 10.0 mi NW 3.5 mph - N/A   Mostly Cloudy
6:55 PM 26.8 °F 22.8 °F 12.4 °F 55% 30.25 in 10.0 mi NNE 3.5 mph - N/A   Scattered Clouds
7:55 PM 24.8 °F - 11.3 °F 57% 30.25 in 10.0 mi Calm Calm - N/A   Partly Cloudy
8:55 PM 22.3 °F 17.6 °F 12.4 °F 66% 30.24 in 10.0 mi ENE 3.5 mph - N/A   Scattered Clouds
9:55 PM 21.2 °F - 12.4 °F 69% 30.23 in 10.0 mi Calm Calm - N/A   Mostly Cloudy
10:55 PM 18.3 °F - 11.3 °F 74% 30.25 in 10.0 mi Calm Calm - N/A   Scattered Clouds
11:55 PM 17.6 °F - 11.5 °F 77% 30.23 in 10.0 mi Calm Calm - N/A   Mostly Cloudy